PAZ (43215 NORAD) Tracking and Keplerian Element Data

This shows tracking and keplerian element data for the satellite.

Feedback or suggestion? Click here.




ElementValue
Catalog43215
NamePAZ
Epoch Orbit38537
Epoch Day34.94529628
Epoch Year2025
RAAN44.4712
Inclination97.4453
Eccentricity0.0001644
Argument of Perigee86.5958
Mean Anonmoly273.5464
Mean Motion15.19167924
Decay Rate4.387E-05
L11 43215U 18020A 25034.94529628 .00004387 00000+0 21187-3 0 9998
L22 43215 97.4453 44.4712 0001644 86.5958 273.5464 15.19167924385379



Live tracking and technical data element details for PAZ (NORAD 43215). PAZ can be tracked NOW for your location showing map with azimuth and elevation plus other details from your city location.







IsCatalogInMostPopularTable: catalog: 43215, numindb: 714
Update: records affected: 1



GetName: 43215 PAZ

Hit Count: updated at: Fri, 18 Jul 2025 16:03:26 GMT